START_TIME,STEP,MOV.,M6,t_acc.,M7,t_acc.,M19,t_acc.,H36,t_acc.
1989-08-27T12:00:27.650 ,5,0,0.,12.0,0.,12.0,0.,12.0,0.,12.0
1989-08-27T12:00:39.650 ,5,0,0.,12.0,0.,12.0,0.,12.0,0.,12.0
1989-08-27T12:00:51.650 ,6,1,0.,12.0,0.,12.0,0.,12.0,0.,12.0
1989-08-27T12:01:03.650 ,6,1,0.,12.0,0.,12.0,0.,12.0,0.,12.0
1989-08-27T12:01:15.650 ,6,0,0.,12.0,0.,12.0,0.,12.0,0.,12.0
1989-08-27T12:01:27.650 ,6,0,0.,12.0,0.,12.0,0.,12.0,0.,12.0
1989-08-27T12:01:39.650 ,7,1,0.,12.0,0.,12.0,0.,12.0,0.,12.0
1989-08-27T12:01:51.650 ,7,1,0.,12.0,0.,12.0,0.,12.0,0.,12.0
1989-08-27T12:02:03.650 ,7,0,0.,12.0,0.,12.0,0.,12.0,0.,12.0
1989-08-27T12:02:15.650 ,7,0,0.,12.0,0.,12.0,0.,12.0,0.,12.0
1989-08-27T12:02:27.650 ,7,1,0.,12.0,0.,12.0,0.,12.0,0.,12.0
1989-08-27T12:02:39.650 ,7,1,0.,12.0,0.,12.0,0.,12.0,0.,12.0
1989-08-27T12:02:51.650 ,7,0,0.,12.0,0.,12.0,0.,12.0,0.,12.0
1989-08-27T12:03:03.650 ,7,0,0.,12.0,0.,12.0,0.,12.0,0.,12.0
1989-08-27T12:03:15.650 ,6,1,0.,12.0,0.,12.0,0.,12.0,0.,12.0
1989-08-27T12:03:27.650 ,6,1,0.,12.0,0.,12.0,0.,12.0,0.,12.0
1989-08-27T12:03:39.650 ,6,0,0.,12.0,0.,12.0,0.,12.0,0.,12.0
1989-08-27T12:03:51.650 ,6,0,0.,12.0,0.,12.0,0.,12.0,0.,12.0
1989-08-27T12:04:03.650 ,5,1,0.,12.0,0.,12.0,0.,12.0,0.,12.0
1989-08-27T12:04:15.650 ,5,1,0.,12.0,0.,12.0,0.,12.0,0.,12.0
1989-08-27T12:04:27.650 ,5,0,0.,12.0,0.,12.0,0.,12.0,0.,12.0
1989-08-27T12:04:39.650 ,5,0,0.,12.0,0.,12.0,0.,12.0,0.,12.0
1989-08-27T12:04:51.650 ,4,1,0.,12.0,0.,12.0,0.,12.0,0.,12.0
1989-08-27T12:05:03.650 ,4,1,0.,12.0,0.,12.0,0.,12.0,0.,12.0
1989-08-27T12:05:15.650 ,4,0,0.,12.0,0.,12.0,0.,12.0,0.,12.0
1989-08-27T12:05:27.650 ,4,0,0.,12.0,0.,12.0,0.,12.0,0.,12.0
1989-08-27T12:05:39.650 ,3,1,0.,12.0,0.,12.0,0.,12.0,0.,12.0
1989-08-27T12:05:51.650 ,3,1,0.,12.0,0.,12.0,0.,12.0,0.,12.0
1989-08-27T12:06:03.650 ,3,0,0.,12.0,0.,12.0,0.,12.0,0.,12.0
1989-08-27T12:06:15.650 ,3,0,0.,12.0,0.,12.0,0.,12.0,0.,12.0
1989-08-27T12:06:27.650 ,2,1,0.,12.0,0.,12.0,0.,12.0,0.,12.0
1989-08-27T12:06:39.650 ,2,1,0.,12.0,0.,12.0,0.,12.0,0.,12.0
1989-08-27T12:06:51.650 ,2,0,0.,12.0,0.,12.0,0.,12.0,0.,12.0
1989-08-27T12:07:03.650 ,2,0,0.,12.0,0.,12.0,0.,12.0,0.,12.0
1989-08-27T12:07:15.650 ,1,1,0.,12.0,0.,12.0,0.,12.0,0.,12.0
1989-08-27T12:07:27.650 ,1,1,0.,12.0,0.,12.0,0.,12.0,0.,12.0
1989-08-27T12:07:39.650 ,1,0,0.,12.0,0.,12.0,0.,12.0,0.,12.0
1989-08-27T12:07:51.650 ,1,0,0.,12.0,0.,12.0,0.,12.0,0.,12.0
1989-08-27T12:08:03.650 ,0,1,0.,12.0,0.,12.0,0.,12.0,0.,12.0
1989-08-27T12:08:15.650 ,0,1,0.,12.0,0.,12.0,0.,12.0,0.,12.0
1989-08-27T12:08:27.650 ,0,0,0.,12.0,0.,12.0,0.,12.0,0.,12.0
1989-08-27T12:08:39.650 ,0,0,0.,12.0,0.,12.0,0.,12.0,0.,12.0
1989-08-27T12:08:51.650 ,0,1,0.,12.0,0.,12.0,0.,12.0,0.,12.0
1989-08-27T12:09:03.650 ,0,1,0.,12.0,0.,12.0,0.,12.0,0.,12.0
1989-08-27T12:09:15.650 ,0,0,0.,12.0,0.,12.0,0.,12.0,0.,12.0
1989-08-27T12:09:27.650 ,0,0,0.,12.0,0.,12.0,0.,12.0,0.,12.0
1989-08-27T12:09:39.650 ,1,1,0.,12.0,0.,12.0,0.,12.0,0.,12.0
1989-08-27T12:09:51.650 ,1,1,0.,12.0,0.,12.0,0.,12.0,0.,12.0
1989-08-27T12:10:03.650 ,1,0,0.,12.0,0.,12.0,0.,12.0,0.,12.0
1989-08-27T12:10:15.650 ,1,0,0.,12.0,0.,12.0,0.,12.0,0.,12.0
1989-08-27T12:10:27.650 ,2,1,0.,12.0,0.,12.0,0.,12.0,0.,12.0
1989-08-27T12:10:39.650 ,2,1,0.,12.0,0.,12.0,0.,12.0,0.,12.0
1989-08-27T12:10:51.650 ,2,0,0.,12.0,0.,12.0,0.,12.0,0.,12.0
1989-08-27T12:11:03.650 ,2,0,0.,12.0,0.,12.0,0.,12.0,0.,12.0
1989-08-27T12:11:15.650 ,3,1,0.,12.0,0.,12.0,0.,12.0,0.,12.0
1989-08-27T12:11:27.650 ,3,1,0.,12.0,0.,12.0,0.,12.0,0.,12.0
1989-08-27T12:11:39.650 ,3,0,0.,12.0,0.,12.0,0.,12.0,0.,12.0
1989-08-27T12:11:51.650 ,3,0,0.,12.0,0.,12.0,0.,12.0,0.,12.0
1989-08-27T12:12:03.650 ,4,1,0.,12.0,0.,12.0,0.,12.0,0.,12.0
1989-08-27T12:12:15.650 ,4,1,0.,12.0,0.,12.0,0.,12.0,0.,12.0
1989-08-27T12:12:27.650 ,4,0,0.,12.0,0.,12.0,0.,12.0,0.,12.0
1989-08-27T12:12:39.650 ,4,0,0.,12.0,0.,12.0,0.,12.0,0.,12.0
1989-08-27T12:12:51.650 ,5,1,0.,12.0,0.,12.0,0.,12.0,0.,12.0
1989-08-27T12:13:03.650 ,5,1,0.,12.0,0.,12.0,0.,12.0,0.,12.0
1989-08-27T12:13:15.650 ,5,0,0.,12.0,0.,12.0,0.,12.0,0.,12.0
1989-08-27T12:13:27.650 ,5,0,0.,12.0,0.,12.0,0.,12.0,0.,12.0
1989-08-27T12:13:39.650 ,6,1,0.,12.0,0.,12.0,0.,12.0,0.,12.0
1989-08-27T12:13:51.650 ,6,1,0.,12.0,0.,12.0,0.,12.0,0.,12.0
1989-08-27T12:14:03.650 ,6,0,0.,12.0,0.,12.0,0.,12.0,0.,12.0
1989-08-27T12:14:15.650 ,6,0,0.,12.0,0.,12.0,0.,12.0,0.,12.0
1989-08-27T12:14:27.650 ,7,1,0.,12.0,0.,12.0,0.,12.0,0.,12.0
1989-08-27T12:14:39.650 ,7,1,0.,12.0,0.,12.0,0.,12.0,0.,12.0
1989-08-27T12:14:51.650 ,7,0,0.,12.0,0.,12.0,0.,12.0,0.,12.0
1989-08-27T12:15:03.650 ,7,0,0.,12.0,0.,12.0,0.,12.0,0.,12.0
1989-08-27T12:15:15.650 ,7,1,0.,12.0,0.,12.0,0.,12.0,0.,12.0
1989-08-27T12:15:27.650 ,7,1,0.,12.0,0.,12.0,0.,12.0,0.,12.0
1989-08-27T12:15:39.650 ,7,0,0.,12.0,0.,12.0,0.,12.0,0.,12.0
1989-08-27T12:15:51.650 ,7,0,0.,12.0,0.,12.0,0.,12.0,0.,12.0
1989-08-27T12:16:03.650 ,6,1,0.,12.0,0.,12.0,0.,12.0,0.,12.0
1989-08-27T12:16:15.650 ,6,1,0.,12.0,0.,12.0,0.,12.0,0.,12.0
1989-08-27T12:16:27.650 ,6,0,0.,12.0,0.,12.0,0.,12.0,0.,12.0
1989-08-27T12:16:39.650 ,6,0,0.,12.0,0.,12.0,0.,12.0,0.,12.0
1989-08-27T12:16:51.650 ,5,1,0.,12.0,0.,12.0,0.,12.0,0.,12.0
1989-08-27T12:17:03.650 ,5,1,0.,12.0,0.,12.0,0.,12.0,0.,12.0
1989-08-27T12:17:15.650 ,5,0,0.,12.0,0.,12.0,0.,12.0,0.,12.0
1989-08-27T12:17:27.650 ,5,0,0.,12.0,0.,12.0,0.,12.0,0.,12.0
1989-08-27T12:17:39.650 ,4,1,0.,12.0,0.,12.0,0.,12.0,0.,12.0
1989-08-27T12:17:51.650 ,4,1,0.,12.0,0.,12.0,0.,12.0,0.,12.0
1989-08-27T12:18:03.650 ,4,0,0.,12.0,0.,12.0,0.,12.0,0.,12.0
1989-08-27T12:18:15.650 ,4,0,0.,12.0,0.,12.0,0.,12.0,0.,12.0
1989-08-27T12:18:27.650 ,3,1,0.,12.0,0.,12.0,0.,12.0,0.,12.0
1989-08-27T12:18:39.650 ,3,1,0.,12.0,0.,12.0,0.,12.0,0.,12.0
1989-08-27T12:18:51.650 ,3,0,0.,12.0,0.,12.0,0.,12.0,0.,12.0
1989-08-27T12:19:03.650 ,3,0,0.,12.0,0.,12.0,0.,12.0,0.,12.0
1989-08-27T12:19:15.650 ,2,1,0.,12.0,0.,12.0,0.,12.0,0.,12.0
1989-08-27T12:19:27.650 ,2,1,0.,12.0,0.,12.0,0.,12.0,0.,12.0
1989-08-27T12:19:39.650 ,2,0,0.,12.0,0.,12.0,0.,12.0,0.,12.0
1989-08-27T12:19:51.650 ,2,0,0.,12.0,0.,12.0,0.,12.0,0.,12.0
1989-08-27T12:20:03.650 ,1,1,0.,12.0,0.,12.0,0.,12.0,0.,12.0
1989-08-27T12:20:15.650 ,1,1,0.,12.0,0.,12.0,0.,12.0,0.,12.0
1989-08-27T12:20:27.650 ,1,0,0.,12.0,0.,12.0,0.,12.0,0.,12.0
1989-08-27T12:20:39.650 ,1,0,0.,12.0,0.,12.0,0.,12.0,0.,12.0
1989-08-27T12:20:51.650 ,0,1,0.,12.0,0.,12.0,0.,12.0,0.,12.0
1989-08-27T12:21:03.650 ,0,1,0.,12.0,0.,12.0,0.,12.0,0.,12.0
1989-08-27T12:21:15.650 ,0,0,0.,12.0,0.,12.0,0.,12.0,0.,12.0
1989-08-27T12:21:27.650 ,0,0,0.,12.0,0.,12.0,0.,12.0,0.,12.0
1989-08-27T12:21:39.650 ,0,1,0.,12.0,0.,12.0,0.,12.0,0.,12.0
1989-08-27T12:21:51.650 ,0,1,0.,12.0,0.,12.0,0.,12.0,0.,12.0
1989-08-27T12:22:03.650 ,0,0,0.,12.0,0.,12.0,0.,12.0,0.,12.0
1989-08-27T12:22:15.650 ,0,0,0.,12.0,0.,12.0,0.,12.0,0.,12.0
1989-08-27T12:22:27.650 ,1,1,0.,12.0,0.,12.0,0.,12.0,0.,12.0
1989-08-27T12:22:39.650 ,1,1,0.,12.0,0.,12.0,0.,12.0,0.,12.0
1989-08-27T12:22:51.650 ,1,0,0.,12.0,0.,12.0,0.,12.0,0.,12.0
1989-08-27T12:23:03.650 ,1,0,0.,12.0,0.,12.0,0.,12.0,0.,12.0
1989-08-27T12:23:15.650 ,2,1,0.,12.0,0.,12.0,0.,12.0,0.,12.0
1989-08-27T12:23:27.650 ,2,1,0.,12.0,0.,12.0,0.,12.0,0.,12.0
1989-08-27T12:23:39.650 ,2,0,0.,12.0,0.,12.0,0.,12.0,0.,12.0
1989-08-27T12:23:51.650 ,2,0,0.,12.0,0.,12.0,0.,12.0,0.,12.0
1989-08-27T12:24:03.650 ,3,1,0.,12.0,0.,12.0,0.,12.0,0.,12.0
1989-08-27T12:24:15.650 ,3,1,0.,12.0,0.,12.0,0.,12.0,0.,12.0
1989-08-27T12:24:27.650 ,3,0,0.,12.0,0.,12.0,0.,12.0,0.,12.0
1989-08-27T12:24:39.650 ,3,0,0.,12.0,0.,12.0,0.,12.0,0.,12.0
1989-08-27T12:24:51.650 ,4,1,0.,12.0,0.,12.0,0.,12.0,0.,12.0
1989-08-27T12:25:03.650 ,4,1,0.,12.0,0.,12.0,0.,12.0,0.,12.0
1989-08-27T12:25:15.650 ,4,0,0.,12.0,0.,12.0,0.,12.0,0.,12.0
1989-08-27T12:25:27.650 ,4,0,0.,12.0,0.,12.0,0.,12.0,0.,12.0
1989-08-27T12:25:39.650 ,5,1,0.,12.0,0.,12.0,0.,12.0,0.,12.0
1989-08-27T12:25:51.650 ,5,1,0.,12.0,0.,12.0,0.,12.0,0.,12.0
1989-08-27T12:26:03.650 ,5,0,0.,12.0,0.,12.0,0.,12.0,0.,12.0
1989-08-27T12:26:15.650 ,5,0,0.,12.0,0.,12.0,0.,12.0,0.,12.0
1989-08-27T12:26:27.650 ,6,1,0.,12.0,0.,12.0,0.,12.0,0.,12.0
1989-08-27T12:26:39.650 ,6,1,0.,12.0,0.,12.0,0.,12.0,0.,12.0
1989-08-27T12:26:51.650 ,6,0,0.,12.0,0.,12.0,0.,12.0,0.,12.0
1989-08-27T12:27:03.650 ,6,0,0.,12.0,0.,12.0,0.,12.0,0.,12.0
1989-08-27T12:27:15.650 ,7,1,0.,12.0,0.,12.0,0.,12.0,0.,12.0
1989-08-27T12:27:27.650 ,7,1,0.,12.0,0.,12.0,0.,12.0,0.,12.0
1989-08-27T12:27:39.650 ,7,0,0.,12.0,0.,12.0,0.,12.0,0.,12.0
1989-08-27T12:27:51.650 ,7,0,0.,12.0,0.,12.0,0.,12.0,0.,12.0
1989-08-27T12:28:03.650 ,7,1,0.,12.0,0.,12.0,0.,12.0,0.,12.0
1989-08-27T12:28:15.650 ,7,1,0.,12.0,0.,12.0,0.,12.0,0.,12.0
1989-08-27T12:28:27.650 ,7,0,0.,12.0,0.,12.0,0.,12.0,0.,12.0
1989-08-27T12:28:39.650 ,7,0,0.,12.0,0.,12.0,0.,12.0,0.,12.0
1989-08-27T12:28:51.650 ,6,1,0.,12.0,0.,12.0,0.,12.0,0.,12.0
1989-08-27T12:29:03.650 ,6,1,0.,12.0,0.,12.0,0.,12.0,0.,12.0
1989-08-27T12:29:15.650 ,6,0,0.,12.0,0.,12.0,0.,12.0,0.,12.0
1989-08-27T12:29:27.650 ,6,0,0.,12.0,0.,12.0,0.,12.0,0.,12.0
1989-08-27T12:29:39.650 ,5,1,0.,12.0,0.,12.0,0.,12.0,0.,12.0
1989-08-27T12:29:51.650 ,5,1,0.,12.0,0.,12.0,0.,12.0,0.,12.0
1989-08-27T12:30:03.650 ,5,0,0.,12.0,0.,12.0,0.,12.0,0.,12.0
1989-08-27T12:30:15.650 ,5,0,0.,12.0,0.,12.0,0.,12.0,0.,12.0
1989-08-27T12:30:27.650 ,4,1,0.,12.0,0.,12.0,0.,12.0,0.,12.0
1989-08-27T12:30:39.650 ,4,1,0.,12.0,0.,12.0,0.,12.0,0.,12.0
1989-08-27T12:30:51.650 ,4,0,0.,12.0,0.,12.0,0.,12.0,0.,12.0
1989-08-27T12:31:03.650 ,4,0,0.,12.0,0.,12.0,0.,12.0,0.,12.0
1989-08-27T12:31:15.650 ,3,1,0.,12.0,0.,12.0,0.,12.0,0.,12.0
1989-08-27T12:31:27.650 ,3,1,0.,12.0,0.,12.0,0.,12.0,0.,12.0
1989-08-27T12:31:39.650 ,3,0,0.,12.0,0.,12.0,0.,12.0,0.,12.0
1989-08-27T12:31:51.650 ,3,0,0.,12.0,0.,12.0,0.,12.0,0.,12.0
1989-08-27T12:32:03.650 ,0,0,0.,12.0,0.,12.0,0.,12.0,0.,12.0
1989-08-27T12:32:15.650 ,0,0,,0,,0,,0,,0
1989-08-27T12:32:27.650 ,0,0,,0,,0,,0,,0
1989-08-27T12:32:39.650 ,0,0,,0,,0,,0,,0
1989-08-27T12:33:01.250 ,0,0,,0,,0,,0,,0
1989-08-27T12:33:13.250 ,0,0,0.,12.0,0.,12.0,0.,12.0,0.,12.0
1989-08-27T12:33:15.650 ,0,0,0.,12.0,0.,12.0,0.,12.0,0.,12.0
1989-08-27T12:33:27.650 ,0,0,0.,12.0,0.,12.0,0.,12.0,0.,12.0
1989-08-27T12:33:39.650 ,0,1,0.,12.0,0.,12.0,0.,12.0,0.,12.0
1989-08-27T12:33:51.650 ,0,1,0.,12.0,0.,12.0,0.,12.0,0.,12.0
1989-08-27T12:34:03.650 ,0,0,0.,12.0,0.,12.0,0.,12.0,0.,12.0
1989-08-27T12:34:15.650 ,0,0,,0,,0,,0,,0
1989-08-27T12:34:14.450 ,0,0,,0,,0,,0,,0
1989-08-27T12:34:26.450 ,0,0,0.,12.0,0.,12.0,0.,12.0,0.,12.0
1989-08-27T12:34:27.650 ,0,1,0.,12.0,0.,12.0,0.,12.0,0.,12.0
1989-08-27T12:34:39.650 ,0,1,0.,12.0,0.,12.0,0.,12.0,0.,12.0
1989-08-27T12:34:51.650 ,0,0,0.,12.0,0.,12.0,0.,12.0,0.,12.0
1989-08-27T12:35:03.650 ,0,0,0.,12.0,0.,12.0,0.,12.0,0.,12.0
1989-08-27T12:35:15.650 ,1,1,0.,12.0,0.,12.0,0.,12.0,0.,12.0
1989-08-27T12:35:27.650 ,1,1,0.,12.0,0.,12.0,0.,12.0,0.,12.0
1989-08-27T12:35:39.650 ,1,0,0.,12.0,0.,12.0,0.,12.0,0.,12.0
1989-08-27T12:35:51.650 ,1,0,0.,12.0,0.,12.0,0.,12.0,0.,12.0
1989-08-27T12:36:03.650 ,2,1,0.,12.0,0.,12.0,0.,12.0,0.,12.0
1989-08-27T12:36:15.650 ,2,1,0.,12.0,0.,12.0,0.,12.0,0.,12.0
1989-08-27T12:36:27.650 ,2,0,0.,12.0,0.,12.0,0.,12.0,0.,12.0
1989-08-27T12:36:39.650 ,2,0,0.,12.0,0.,12.0,0.,12.0,0.,12.0
1989-08-27T12:36:51.650 ,3,1,0.,12.0,0.,12.0,0.,12.0,0.,12.0
1989-08-27T12:37:03.650 ,3,1,0.,12.0,0.,12.0,0.,12.0,0.,12.0
1989-08-27T12:37:15.650 ,3,0,0.,12.0,0.,12.0,0.,12.0,0.,12.0
1989-08-27T12:37:27.650 ,3,0,0.,12.0,0.,12.0,0.,12.0,0.,12.0
1989-08-27T12:37:39.650 ,4,1,0.,12.0,0.,12.0,0.,12.0,0.,12.0
1989-08-27T12:37:51.650 ,4,1,0.,12.0,0.,12.0,0.,12.0,0.,12.0
1989-08-27T12:38:03.650 ,4,0,0.,12.0,0.,12.0,0.,12.0,0.,12.0
1989-08-27T12:38:15.650 ,4,0,0.,12.0,0.,12.0,0.,12.0,0.,12.0
1989-08-27T12:38:27.650 ,5,1,0.,12.0,0.,12.0,0.,12.0,0.,12.0
1989-08-27T12:38:39.650 ,5,1,0.,12.0,0.,12.0,0.,12.0,0.,12.0
1989-08-27T12:38:51.650 ,5,0,0.,12.0,0.,12.0,0.,12.0,0.,12.0
1989-08-27T12:39:03.650 ,5,0,0.,12.0,0.,12.0,0.,12.0,0.,12.0
1989-08-27T12:39:15.650 ,6,1,0.,12.0,0.,12.0,0.,12.0,0.,12.0
1989-08-27T12:39:27.650 ,6,1,0.,12.0,0.,12.0,0.,12.0,0.,12.0
1989-08-27T12:39:39.650 ,6,0,0.,12.0,0.,12.0,0.,12.0,0.,12.0
1989-08-27T12:39:51.650 ,6,0,0.,12.0,0.,12.0,0.,12.0,0.,12.0
1989-08-27T12:40:03.650 ,7,1,0.,12.0,0.,12.0,0.,12.0,0.,12.0
1989-08-27T12:40:15.650 ,7,1,0.,12.0,0.,12.0,0.,12.0,0.,12.0
1989-08-27T12:40:27.650 ,7,0,0.,12.0,0.,12.0,0.,12.0,0.,12.0
1989-08-27T12:40:39.650 ,7,0,0.,12.0,0.,12.0,0.,12.0,0.,12.0
1989-08-27T12:40:51.650 ,7,1,0.,12.0,0.,12.0,0.,12.0,0.,12.0
1989-08-27T12:41:03.650 ,7,1,0.,12.0,0.,12.0,0.,12.0,0.,12.0
1989-08-27T12:41:15.650 ,7,0,0.,12.0,0.,12.0,0.,12.0,0.,12.0
1989-08-27T12:41:27.650 ,7,0,0.,12.0,0.,12.0,0.,12.0,0.,12.0
1989-08-27T12:41:39.650 ,6,1,0.,12.0,0.,12.0,0.,12.0,0.,12.0
1989-08-27T12:41:51.650 ,6,1,0.,12.0,0.,12.0,0.,12.0,0.,12.0
1989-08-27T12:42:03.650 ,6,0,0.,12.0,0.,12.0,0.,12.0,0.,12.0
1989-08-27T12:42:15.650 ,6,0,0.,12.0,0.,12.0,0.,12.0,0.,12.0
1989-08-27T12:42:27.650 ,5,1,0.,12.0,0.,12.0,0.,12.0,0.,12.0
1989-08-27T12:42:39.650 ,5,1,0.,12.0,0.,12.0,0.,12.0,0.,12.0
1989-08-27T12:42:51.650 ,5,0,0.,12.0,0.,12.0,0.,12.0,0.,12.0
1989-08-27T12:43:03.650 ,5,0,0.,12.0,0.,12.0,0.,12.0,0.,12.0
1989-08-27T12:43:15.650 ,4,1,0.,12.0,0.,12.0,0.,12.0,0.,12.0
1989-08-27T12:43:27.650 ,4,1,0.,12.0,0.,12.0,0.,12.0,0.,12.0
1989-08-27T12:43:39.650 ,4,0,0.,12.0,0.,12.0,0.,12.0,0.,12.0
1989-08-27T12:43:51.650 ,4,0,0.,12.0,0.,12.0,0.,12.0,0.,12.0
1989-08-27T12:44:03.650 ,3,1,0.,12.0,0.,12.0,0.,12.0,0.,12.0
1989-08-27T12:44:15.650 ,3,1,0.,12.0,0.,12.0,0.,12.0,0.,12.0
1989-08-27T12:44:27.650 ,3,0,0.,12.0,0.,12.0,0.,12.0,0.,12.0
1989-08-27T12:44:39.650 ,3,0,0.,12.0,0.,12.0,0.,12.0,0.,12.0
1989-08-27T12:44:51.650 ,2,1,0.,12.0,0.,12.0,0.,12.0,0.,12.0
1989-08-27T12:45:03.650 ,2,1,0.,12.0,0.,12.0,0.,12.0,0.,12.0
1989-08-27T12:45:15.650 ,2,0,0.,12.0,0.,12.0,0.,12.0,0.,12.0
1989-08-27T12:45:27.650 ,2,0,0.,12.0,0.,12.0,0.,12.0,0.,12.0
1989-08-27T12:45:39.650 ,1,1,0.,12.0,0.,12.0,0.,12.0,0.,12.0
1989-08-27T12:45:51.650 ,1,1,0.,12.0,0.,12.0,0.,12.0,0.,12.0
1989-08-27T12:46:03.650 ,1,0,0.,12.0,0.,12.0,0.,12.0,0.,12.0
1989-08-27T12:46:15.650 ,1,0,0.,12.0,0.,12.0,0.,12.0,0.,12.0
1989-08-27T12:46:27.650 ,0,1,0.,12.0,0.,12.0,0.,12.0,0.,12.0
1989-08-27T12:46:39.650 ,0,1,0.,12.0,0.,12.0,0.,12.0,0.,12.0
1989-08-27T12:46:51.650 ,0,0,0.,12.0,0.,12.0,0.,12.0,0.,12.0
1989-08-27T12:47:03.650 ,0,0,0.,12.0,0.,12.0,0.,12.0,0.,12.0
1989-08-27T12:47:15.650 ,0,1,0.,12.0,0.,12.0,0.,12.0,0.,12.0
1989-08-27T12:47:27.650 ,0,1,0.,12.0,0.,12.0,0.,12.0,0.,12.0
1989-08-27T12:47:39.650 ,0,0,0.,12.0,0.,12.0,0.,12.0,0.,12.0
1989-08-27T12:47:51.650 ,0,0,0.,12.0,0.,12.0,0.,12.0,0.,12.0
1989-08-27T12:48:03.650 ,1,1,0.,12.0,0.,12.0,0.,12.0,0.,12.0
1989-08-27T12:48:15.650 ,1,1,0.,12.0,0.,12.0,0.,12.0,0.,12.0
1989-08-27T12:48:27.650 ,1,0,0.,12.0,0.,12.0,0.,12.0,0.,12.0
1989-08-27T12:48:39.650 ,1,0,0.,12.0,0.,12.0,0.,12.0,0.,12.0
1989-08-27T12:48:51.650 ,2,1,0.,12.0,0.,12.0,0.,12.0,0.,12.0
1989-08-27T12:49:03.650 ,2,1,0.,12.0,0.,12.0,0.,12.0,0.,12.0
1989-08-27T12:49:15.650 ,2,0,0.,12.0,0.,12.0,0.,12.0,0.,12.0
1989-08-27T12:49:27.650 ,2,0,0.,12.0,0.,12.0,0.,12.0,0.,12.0
1989-08-27T12:49:39.650 ,3,1,0.,12.0,0.,12.0,0.,12.0,0.,12.0
1989-08-27T12:49:51.650 ,3,1,0.,12.0,0.,12.0,0.,12.0,0.,12.0
1989-08-27T12:50:03.650 ,3,0,0.,12.0,0.,12.0,0.,12.0,0.,12.0
1989-08-27T12:50:15.650 ,3,0,0.,12.0,0.,12.0,0.,12.0,0.,12.0
1989-08-27T12:50:27.650 ,4,1,0.,12.0,0.,12.0,0.,12.0,0.,12.0
1989-08-27T12:50:39.650 ,4,1,0.,12.0,0.,12.0,0.,12.0,0.,12.0
1989-08-27T12:50:51.650 ,4,0,0.,12.0,0.,12.0,0.,12.0,0.,12.0
1989-08-27T12:51:03.650 ,4,0,0.,12.0,0.,12.0,0.,12.0,0.,12.0
1989-08-27T12:51:15.650 ,5,1,0.,12.0,0.,12.0,0.,12.0,0.,12.0
1989-08-27T12:51:27.650 ,5,1,0.,12.0,0.,12.0,0.,12.0,0.,12.0
1989-08-27T12:51:39.650 ,5,0,0.,12.0,0.,12.0,0.,12.0,0.,12.0
1989-08-27T12:51:51.650 ,5,0,0.,12.0,0.,12.0,0.,12.0,0.,12.0
1989-08-27T12:52:03.650 ,6,1,0.,12.0,0.,12.0,0.,12.0,0.,12.0
1989-08-27T12:52:15.650 ,6,1,0.,12.0,0.,12.0,0.,12.0,0.,12.0
1989-08-27T12:52:27.650 ,6,0,0.,12.0,0.,12.0,0.,12.0,0.,12.0
1989-08-27T12:52:39.650 ,6,0,0.,12.0,0.,12.0,0.,12.0,0.,12.0
1989-08-27T12:52:51.650 ,7,1,0.,12.0,0.,12.0,0.,12.0,0.,12.0
1989-08-27T12:53:03.650 ,7,1,0.,12.0,0.,12.0,0.,12.0,0.,12.0
1989-08-27T12:53:15.650 ,7,0,0.,12.0,0.,12.0,0.,12.0,0.,12.0
1989-08-27T12:53:27.650 ,7,0,0.,12.0,0.,12.0,0.,12.0,0.,12.0
1989-08-27T12:53:39.650 ,7,1,0.,12.0,0.,12.0,0.,12.0,0.,12.0
1989-08-27T12:53:51.650 ,7,1,0.,12.0,0.,12.0,0.,12.0,0.,12.0
1989-08-27T12:54:03.650 ,7,0,0.,12.0,0.,12.0,0.,12.0,0.,12.0
1989-08-27T12:54:15.650 ,7,0,0.,12.0,0.,12.0,0.,12.0,0.,12.0
1989-08-27T12:54:27.650 ,6,1,0.,12.0,0.,12.0,0.,12.0,0.,12.0
1989-08-27T12:54:39.650 ,6,1,0.,12.0,0.,12.0,0.,12.0,0.,12.0
1989-08-27T12:54:51.650 ,6,0,0.,12.0,0.,12.0,0.,12.0,0.,12.0
1989-08-27T12:55:03.650 ,6,0,0.,12.0,0.,12.0,0.,12.0,0.,12.0
1989-08-27T12:55:15.650 ,5,1,0.,12.0,0.,12.0,0.,12.0,0.,12.0
1989-08-27T12:55:27.650 ,5,1,0.,12.0,0.,12.0,0.,12.0,0.,12.0
1989-08-27T12:55:39.650 ,5,0,0.,12.0,0.,12.0,0.,12.0,0.,12.0
1989-08-27T12:55:51.650 ,5,0,0.,12.0,0.,12.0,0.,12.0,0.,12.0
1989-08-27T12:56:03.650 ,4,1,0.,12.0,0.,12.0,0.,12.0,0.,12.0
1989-08-27T12:56:15.650 ,4,1,0.,12.0,0.,12.0,0.,12.0,0.,12.0
1989-08-27T12:56:27.650 ,4,0,0.,12.0,0.,12.0,0.,12.0,0.,12.0
1989-08-27T12:56:39.650 ,4,0,0.,12.0,0.,12.0,0.,12.0,0.,12.0
1989-08-27T12:56:51.650 ,3,1,0.,12.0,0.,12.0,0.,12.0,0.,12.0
1989-08-27T12:57:03.650 ,3,1,0.,12.0,0.,12.0,0.,12.0,0.,12.0
1989-08-27T12:57:15.650 ,3,0,0.,12.0,0.,12.0,0.,12.0,0.,12.0
1989-08-27T12:57:27.650 ,3,0,0.,12.0,0.,12.0,0.,12.0,0.,12.0
1989-08-27T12:57:39.650 ,2,1,0.,12.0,0.,12.0,0.,12.0,0.,12.0
1989-08-27T12:57:51.650 ,2,1,0.,12.0,0.,12.0,0.,12.0,0.,12.0
1989-08-27T12:58:03.650 ,2,0,0.,12.0,0.,12.0,0.,12.0,0.,12.0
1989-08-27T12:58:15.650 ,2,0,0.,12.0,0.,12.0,0.,12.0,0.,12.0
1989-08-27T12:58:27.650 ,1,1,0.,12.0,0.,12.0,0.,12.0,0.,12.0
1989-08-27T12:58:39.650 ,1,1,0.,12.0,0.,12.0,0.,12.0,0.,12.0
1989-08-27T12:58:51.650 ,1,0,0.,12.0,0.,12.0,0.,12.0,0.,12.0
1989-08-27T12:59:03.650 ,1,0,0.,12.0,0.,12.0,0.,12.0,0.,12.0
1989-08-27T12:59:15.650 ,0,1,0.,12.0,0.,12.0,0.,12.0,0.,12.0
1989-08-27T12:59:27.650 ,0,1,0.,12.0,0.,12.0,0.,12.0,0.,12.0
1989-08-27T12:59:39.650 ,0,0,0.,12.0,0.,12.0,0.,12.0,0.,12.0
1989-08-27T12:59:51.650 ,0,0,0.,12.0,0.,12.0,0.,12.0,0.,12.0
1989-08-27T13:00:03.650 ,0,1,0.,12.0,0.,12.0,0.,12.0,0.,12.0
1989-08-27T13:00:15.650 ,0,1,0.,12.0,0.,12.0,0.,12.0,0.,12.0
1989-08-27T13:00:27.650 ,0,0,0.,12.0,0.,12.0,0.,12.0,0.,12.0
1989-08-27T13:00:39.650 ,0,0,0.,12.0,0.,12.0,0.,12.0,0.,12.0
1989-08-27T13:00:51.650 ,1,1,0.,12.0,0.,12.0,0.,12.0,0.,12.0
1989-08-27T13:01:03.650 ,1,1,0.,12.0,0.,12.0,0.,12.0,0.,12.0
1989-08-27T13:01:15.650 ,1,0,0.,12.0,0.,12.0,0.,12.0,0.,12.0
1989-08-27T13:01:27.650 ,1,0,0.,12.0,0.,12.0,0.,12.0,0.,12.0
1989-08-27T13:01:39.650 ,2,1,0.,12.0,0.,12.0,0.,12.0,0.,12.0
1989-08-27T13:01:51.650 ,2,1,0.,12.0,0.,12.0,0.,12.0,0.,12.0
1989-08-27T13:02:03.650 ,2,0,0.,12.0,0.,12.0,0.,12.0,0.,12.0
1989-08-27T13:02:15.650 ,2,0,0.,12.0,0.,12.0,0.,12.0,0.,12.0
1989-08-27T13:02:27.650 ,3,1,0.,12.0,0.,12.0,0.,12.0,0.,12.0
1989-08-27T13:02:39.650 ,3,1,0.,12.0,0.,12.0,0.,12.0,0.,12.0
1989-08-27T13:02:51.650 ,3,0,0.,12.0,0.,12.0,0.,12.0,0.,12.0
1989-08-27T13:03:03.650 ,3,0,0.,12.0,0.,12.0,0.,12.0,0.,12.0
1989-08-27T13:03:15.650 ,4,1,0.,12.0,0.,12.0,0.,12.0,0.,12.0
1989-08-27T13:03:27.650 ,4,1,0.,12.0,0.,12.0,0.,12.0,0.,12.0
1989-08-27T13:03:39.650 ,4,0,0.,12.0,0.,12.0,0.,12.0,0.,12.0
1989-08-27T13:03:51.650 ,4,0,0.,12.0,0.,12.0,0.,12.0,0.,12.0
1989-08-27T13:04:03.650 ,5,1,0.,12.0,0.,12.0,0.,12.0,0.,12.0
1989-08-27T13:04:15.650 ,5,1,0.,12.0,0.,12.0,0.,12.0,0.,12.0
1989-08-27T13:04:27.650 ,5,0,0.,12.0,0.,12.0,0.,12.0,0.,12.0
1989-08-27T13:04:39.650 ,5,0,0.,12.0,0.,12.0,0.,12.0,0.,12.0
1989-08-27T13:04:51.650 ,6,1,0.,12.0,0.,12.0,0.,12.0,0.,12.0
1989-08-27T13:05:03.650 ,6,1,0.,12.0,0.,12.0,0.,12.0,0.,12.0
1989-08-27T13:05:15.650 ,6,0,0.,12.0,0.,12.0,0.,12.0,0.,12.0
1989-08-27T13:05:27.650 ,6,0,0.,12.0,0.,12.0,0.,12.0,0.,12.0
1989-08-27T13:05:39.650 ,7,1,0.,12.0,0.,12.0,0.,12.0,0.,12.0
1989-08-27T13:05:51.650 ,7,1,0.,12.0,0.,12.0,0.,12.0,0.,12.0
1989-08-27T13:06:03.650 ,7,0,0.,12.0,0.,12.0,0.,12.0,0.,12.0
1989-08-27T13:06:15.650 ,7,0,0.,12.0,0.,12.0,0.,12.0,0.,12.0
1989-08-27T13:06:27.650 ,7,1,0.,12.0,0.,12.0,0.,12.0,0.,12.0
1989-08-27T13:06:39.650 ,7,1,0.,12.0,0.,12.0,0.,12.0,0.,12.0
1989-08-27T13:06:51.650 ,7,0,0.,12.0,0.,12.0,0.,12.0,0.,12.0
1989-08-27T13:07:03.650 ,7,0,0.,12.0,0.,12.0,0.,12.0,0.,12.0
1989-08-27T13:07:15.650 ,6,1,0.,12.0,0.,12.0,0.,12.0,0.,12.0
1989-08-27T13:07:27.650 ,6,1,0.,12.0,0.,12.0,0.,12.0,0.,12.0
1989-08-27T13:07:39.650 ,6,0,0.,12.0,0.,12.0,0.,12.0,0.,12.0
1989-08-27T13:07:51.650 ,6,0,0.,12.0,0.,12.0,0.,12.0,0.,12.0
1989-08-27T13:08:03.650 ,5,1,0.,12.0,0.,12.0,0.,12.0,0.,12.0
1989-08-27T13:08:15.650 ,5,1,0.,12.0,0.,12.0,0.,12.0,0.,12.0
1989-08-27T13:08:27.650 ,5,0,0.,12.0,0.,12.0,0.,12.0,0.,12.0
1989-08-27T13:08:39.650 ,5,0,0.,12.0,0.,12.0,0.,12.0,0.,12.0
1989-08-27T13:08:51.640 ,4,1,0.,12.0,0.,12.0,0.,12.0,0.,12.0
1989-08-27T13:09:03.650 ,4,1,0.,12.0,0.,12.0,0.,12.0,0.,12.0
1989-08-27T13:09:15.640 ,4,0,0.,12.0,0.,12.0,0.,12.0,0.,12.0
1989-08-27T13:09:27.650 ,4,0,0.,12.0,0.,12.0,0.,12.0,0.,12.0
1989-08-27T13:09:39.640 ,3,1,0.,12.0,0.,12.0,0.,12.0,0.,12.0
1989-08-27T13:09:51.650 ,3,1,0.,12.0,0.,12.0,0.,12.0,0.,12.0
1989-08-27T13:10:03.640 ,3,0,0.,12.0,0.,12.0,0.,12.0,0.,12.0
1989-08-27T13:10:15.640 ,3,0,0.,12.0,0.,12.0,0.,12.0,0.,12.0
1989-08-27T13:10:27.640 ,2,1,0.,12.0,0.,12.0,0.,12.0,0.,12.0
1989-08-27T13:10:39.650 ,2,1,0.,12.0,0.,12.0,0.,12.0,0.,12.0
1989-08-27T13:10:51.640 ,2,0,0.,12.0,0.,12.0,0.,12.0,0.,12.0
1989-08-27T13:11:03.650 ,2,0,0.,12.0,0.,12.0,0.,12.0,0.,12.0
1989-08-27T13:11:15.640 ,1,1,0.,12.0,0.,12.0,0.,12.0,0.,12.0
1989-08-27T13:11:27.650 ,1,1,0.,12.0,0.,12.0,0.,12.0,0.,12.0
1989-08-27T13:11:39.640 ,1,0,0.,12.0,0.,12.0,0.,12.0,0.,12.0
1989-08-27T13:11:51.650 ,1,0,0.,12.0,0.,12.0,0.,12.0,0.,12.0
1989-08-27T13:12:03.640 ,0,1,0.,12.0,0.,12.0,0.,12.0,0.,12.0
1989-08-27T13:12:15.640 ,0,1,0.,12.0,0.,12.0,0.,12.0,0.,12.0
1989-08-27T13:12:27.640 ,0,0,0.,12.0,0.,12.0,0.,12.0,0.,12.0
1989-08-27T13:12:39.650 ,0,0,0.,12.0,0.,12.0,0.,12.0,0.,12.0
1989-08-27T13:13:43.840 ,0,0,0.,12.0,0.,12.0,0.,12.0,0.,12.0
1989-08-27T13:13:55.850 ,0,0,0.,12.0,0.,12.0,0.,12.0,0.,12.0
1989-08-27T13:14:03.640 ,0,0,0.,12.0,0.,12.0,0.,12.0,0.,12.0
1989-08-27T13:14:15.640 ,0,0,0.,12.0,0.,12.0,0.,12.0,0.,12.0
1989-08-27T13:14:27.640 ,2,1,0.,12.0,0.,12.0,0.,12.0,0.,12.0
1989-08-27T13:14:39.650 ,2,1,0.,12.0,0.,12.0,0.,12.0,0.,12.0
1989-08-27T13:14:51.640 ,2,0,0.,12.0,0.,12.0,0.,12.0,0.,12.0
1989-08-27T13:15:03.650 ,2,0,0.,12.0,0.,12.0,0.,12.0,0.,12.0
1989-08-27T13:15:15.640 ,3,1,0.,12.0,0.,12.0,0.,12.0,0.,12.0
1989-08-27T13:15:27.650 ,3,1,0.,12.0,0.,12.0,0.,12.0,0.,12.0
1989-08-27T13:15:39.640 ,3,0,0.,12.0,0.,12.0,0.,12.0,0.,12.0
1989-08-27T13:15:51.650 ,3,0,0.,12.0,0.,12.0,0.,12.0,0.,12.0
1989-08-27T13:16:03.640 ,4,1,0.,12.0,0.,12.0,0.,12.0,0.,12.0
1989-08-27T13:16:15.640 ,4,1,0.,12.0,0.,12.0,0.,12.0,0.,12.0
1989-08-27T13:16:27.640 ,4,0,0.,12.0,0.,12.0,0.,12.0,0.,12.0
1989-08-27T13:16:39.650 ,4,0,0.,12.0,0.,12.0,0.,12.0,0.,12.0
1989-08-27T13:16:51.640 ,5,1,0.,12.0,0.,12.0,0.,12.0,0.,12.0
1989-08-27T13:17:03.650 ,5,1,0.,12.0,0.,12.0,0.,12.0,0.,12.0
1989-08-27T13:17:15.650 ,5,0,0.,12.0,0.,12.0,0.,12.0,0.,12.0
1989-08-27T13:17:27.650 ,5,0,0.,12.0,0.,12.0,0.,12.0,0.,12.0
1989-08-27T13:17:39.650 ,6,1,0.,12.0,0.,12.0,0.,12.0,0.,12.0
1989-08-27T13:17:51.650 ,6,1,0.,12.0,0.,12.0,0.,12.0,0.,12.0
1989-08-27T13:18:03.650 ,6,0,0.,12.0,0.,12.0,0.,12.0,0.,12.0
1989-08-27T13:18:15.650 ,6,0,0.,12.0,0.,12.0,0.,12.0,0.,12.0